[[{"header":{"parameterUnit":"m.s-1","parameterCategory":1,"la1":30.2991,"la2":30.254,"lo1":-89.0895,"lo2":-89.0444,"dy":0.0017,"dx":0.0017,"nx":28,"ny":28,"refTime":"2025-11-11T03:00:00:Z","depth":0,"parameterNumber":2,"parameterNumberName":"U-component_of_WINDS"},"data":[0,0,0,0,0,0,0,0,0,0,0,0,0,0,0,0,0,0,0,0,0,0,0,0,0,0,0,0,0,0,0,0,0,0,0,0,0,0,0,0,0,0,0,0,0,0,0,0,0,0,0,0,0,0,0,0,0,0,3.1211,3.1212,0,3.1265,3.1266,3.1266,3.1229,3.1227,3.1225,3.1224,3.1276,3.1279,3.1282,0,0,0,0,0,0,0,0,0,0,0,0,0,3.1075,3.1078,3.1211,3.1212,3.1213,3.1265,3.1266,3.1266,3.1229,3.1227,3.1225,3.1223,3.1275,3.1278,3.1282,0,0,0,0,0,0,0,0,0,0,0,0,0,3.1132,3.1079,3.1211,3.12,3.12,3.1265,3.1266,3.1267,3.1229,3.1227,3.1224,3.1222,3.1274,3.1278,3.1282,3.136,0,0,3.1296,3.1298,0,0,0,0,0,0,0,0,3.1129,3.1137,3.1201,3.1201,3.1201,3.1238,3.1237,3.1298,3.123,3.1218,3.1224,3.1221,3.1265,3.127,3.1285,3.1362,3.1365,3.1296,3.1299,3.1301,3.1302,0,0,0,0,0,0,0,3.1125,3.1135,3.1232,3.1202,3.1202,3.1192,3.1198,3.1248,3.1255,3.1219,3.1216,3.1223,3.1264,3.1281,3.1286,3.1365,3.1296,3.13,3.1303,3.1305,3.151,3.1513,0,0,0,0,0,0,3.1122,3.1132,3.1231,3.1234,3.1158,3.1197,3.1203,3.1228,3.1254,3.1256,3.1226,3.1222,3.1275,3.1281,3.1288,3.1381,3.1301,3.1305,3.1308,3.1507,3.1511,3.1514,0,0,0,0,0,0,3.112,3.1132,3.1228,3.1182,3.1194,3.1202,3.1231,3.1231,3.1248,3.1259,3.126,3.1242,3.1273,3.1282,3.1343,3.1382,3.1307,3.1311,3.1504,3.1508,3.1512,3.1568,0,0,0,0,0,0,3.1116,3.1131,3.116,3.1183,3.1196,3.1283,3.1233,3.1234,3.1256,3.1251,3.1275,3.1276,3.1272,3.1337,3.1347,3.1387,3.1314,3.15,3.1506,3.1511,3.1562,3.1573,3.1583,0,0,0,0,0,3.1111,3.1173,3.1162,3.1174,3.1234,3.1285,3.1293,3.1287,3.1259,3.1289,3.1297,3.1275,3.1377,3.1343,3.1355,3.1397,3.1498,3.1504,3.151,3.1558,3.1571,3.1582,0,0,0,0,0,0,3.1153,3.1175,3.1164,3.1235,3.1259,3.1279,3.1316,3.1302,3.1333,3.1327,3.1319,3.1324,3.1389,3.1399,3.1361,3.1474,3.1433,3.1442,3.1465,3.1477,3.1487,3.1483,3.1318,0,0,0,0,0,3.117,3.1211,3.1228,3.1289,3.1302,3.1307,3.1329,3.1324,3.1348,3.1357,3.1369,3.1393,3.143,3.1454,3.1489,3.1564,3.1569,3.1599,3.1609,3.1617,3.1625,3.1666,3.168,3.1534,3.1534,3.1534,0,0,3.1207,3.1224,3.125,3.1298,3.1316,3.1358,3.1316,3.1361,3.1392,3.1363,3.1422,3.1433,3.1458,3.1527,3.1558,3.1537,3.1667,3.1625,3.1632,3.1635,3.1674,3.1688,3.17,3.1539,3.1538,3.1537,0,0,3.1294,3.1312,3.1365,3.1384,3.1413,3.1416,3.1429,3.1452,3.1458,3.1518,3.1497,3.1534,3.1598,3.1618,3.1636,3.1734,3.1716,3.1746,3.1798,3.1839,3.185,3.186,3.1896,3.1908,3.1753,3.1754,3.1754,0,3.1335,3.1398,3.1394,3.1442,3.1464,3.1442,3.1496,3.1515,3.1552,3.1568,3.1545,3.1627,3.1642,3.1716,3.174,3.1756,3.177,3.1742,3.1849,3.1859,3.1869,3.1902,3.1915,3.1757,3.1757,3.1756,3.1756,0,3.1448,3.1492,3.1532,3.1571,3.1597,3.1648,3.1651,3.1679,3.1672,3.1678,3.1739,3.1758,3.1796,3.1814,3.1806,3.1887,3.1873,3.185,3.1808,3.1886,3.1917,3.193,3.1762,3.1761,3.176,3.1759,0,0,3.156,3.1599,3.1613,3.1631,3.1662,3.1696,3.1746,3.1786,3.181,3.1837,3.1879,3.1935,3.1915,3.1936,3.1931,3.1967,3.2044,3.1939,3.1939,3.1958,3.2135,3.2151,3.2166,3.2033,3.2035,3.2037,3.2132,0,3.165,3.1738,3.1737,3.1819,3.186,3.1841,3.1885,3.1909,3.1917,3.1952,3.196,3.2001,3.197,3.1983,3.2018,3.2027,3.2079,3.202,3.2071,3.2073,3.2065,3.2183,3.22,3.2289,3.2145,3.2147,3.2148,0,3.1765,3.1798,3.1885,3.1911,3.1929,3.1968,3.2005,3.204,3.2067,3.207,3.2095,3.2085,3.2136,3.2095,3.2165,3.2126,3.2147,3.2155,3.2158,3.2162,3.2114,3.2189,3.2317,3.233,3.2167,3.2166,3.2164,0,3.1839,3.1905,3.1966,3.1982,3.2014,3.2043,3.2057,3.2082,3.2107,3.2139,3.2155,3.2192,3.2213,3.2242,3.2243,3.2213,3.2315,3.2273,3.2319,3.2319,3.2339,3.2338,3.2472,3.2355,3.2355,3.2354,3.2354,0,3.1938,3.1991,3.1999,3.2037,3.2096,3.2095,3.2154,3.2166,3.2189,3.2228,3.2214,3.2251,3.225,3.2288,3.2289,3.2348,3.2357,3.2361,3.2361,3.2362,3.2362,3.2375,3.2368,3.2358,3.2357,3.2356,3.2356,0,3.2029,3.2037,3.2102,3.2128,3.2136,3.2179,3.2202,3.2237,3.2245,3.2295,3.2306,3.2318,3.2362,3.2366,3.2417,3.2418,3.2489,3.2482,3.248,3.2479,3.2524,3.2519,3.267,3.269,3.2561,3.2562,3.2563,0,3.2091,3.2132,3.2164,3.219,3.2207,3.2249,3.2274,3.2275,3.2302,3.2338,3.2369,3.2412,3.2447,3.2518,3.253,3.257,3.2563,3.2614,3.2569,3.2569,3.2564,3.2561,3.2565,3.2622,3.2623,3.2624,3.2625,0,3.2201,3.2203,3.2241,3.2282,3.2313,3.2344,3.2373,3.2395,3.24,3.2431,3.2477,3.2504,3.2557,3.26,3.2639,3.2654,3.2641,3.264,3.2652,3.2653,3.2651,3.2653,3.2503,3.2636,3.2635,3.2634,3.2633,3.2633,3.2279,3.2316,3.2344,3.2388,3.241,3.2439,3.2474,3.2487,3.2525,3.2569,3.2568,3.2618,3.2646,3.2697,3.2715,3.2755,3.2738,3.2756,3.276,3.2765,3.2769,3.2646,3.2762,3.2761,3.2761,3.2761,3.2761,0,3.2388,3.2406,3.2446,3.2489,3.2523,3.251,3.2542,3.2572,3.2617,3.2644,3.2679,3.2732,3.2775,3.2792,3.2833,3.2862,3.2857,3.2872,3.287,3.2874,3.2782,3.2767,3.2876,3.2876,3.2876,3.2876,3.2876,3.2876,3.2449,3.251,3.2516,3.2589,3.2606,3.2657,3.2676,3.2703,3.2725,3.2785,3.2821,3.2833,3.2856,3.29,3.2938,3.2942,3.2958,3.2976,3.2978,3.2891,3.288,3.2869,3.2854,3.298,3.298,3.3066,3.3066,3.3067]},{"header":{"parameterUnit":"m.s-1","parameterCategory":1,"la1":30.2991,"la2":30.254,"lo1":-89.0895,"lo2":-89.0444,"dy":0.0017,"dx":0.0017,"nx":28,"ny":28,"refTime":"2025-11-11T03:00:00:Z","depth":0,"parameterNumber":3,"parameterNumberName":"V-component_of_WINDS"},"data":[0,0,0,0,0,0,0,0,0,0,0,0,0,0,0,0,0,0,0,0,0,0,0,0,0,0,0,0,0,0,0,0,0,0,0,0,0,0,0,0,0,0,0,0,0,0,0,0,0,0,0,0,0,0,0,0,0,0,-7.3393,-7.3395,0,-7.3554,-7.3556,-7.3558,-7.3422,-7.3417,-7.3411,-7.3406,-7.3568,-7.3577,-7.3587,0,0,0,0,0,0,0,0,0,0,0,0,0,-7.2967,-7.2976,-7.3393,-7.3395,-7.3397,-7.3554,-7.3556,-7.3558,-7.3423,-7.3416,-7.3409,-7.3403,-7.3565,-7.3576,-7.3588,0,0,0,0,0,0,0,0,0,0,0,0,0,-7.3143,-7.2979,-7.3393,-7.3349,-7.3346,-7.3553,-7.3556,-7.3559,-7.3425,-7.3416,-7.3408,-7.34,-7.3561,-7.3575,-7.3589,-7.3847,0,0,-7.3633,-7.3639,0,0,0,0,0,0,0,0,-7.3133,-7.3158,-7.3353,-7.3352,-7.335,-7.3459,-7.3465,-7.3655,-7.3427,-7.3395,-7.3405,-7.3396,-7.3539,-7.3554,-7.3603,-7.3855,-7.3862,-7.3634,-7.3643,-7.3649,-7.3653,0,0,0,0,0,0,0,-7.3121,-7.3151,-7.3456,-7.3356,-7.3354,-7.332,-7.3336,-7.35,-7.3512,-7.3397,-7.3388,-7.3409,-7.3536,-7.3589,-7.3606,-7.3864,-7.3634,-7.3647,-7.3656,-7.3661,-7.4335,-7.4344,0,0,0,0,0,0,-7.3113,-7.3141,-7.3451,-7.3461,-7.3218,-7.3335,-7.3352,-7.3433,-7.351,-7.3514,-7.3416,-7.3402,-7.3569,-7.3589,-7.3611,-7.3918,-7.3649,-7.3663,-7.3671,-7.4326,-7.4338,-7.4348,0,0,0,0,0,0,-7.3105,-7.3142,-7.3445,-7.3299,-7.3335,-7.3351,-7.3443,-7.344,-7.3494,-7.3524,-7.3525,-7.3468,-7.3563,-7.3591,-7.379,-7.3922,-7.3669,-7.3682,-7.4315,-7.433,-7.4343,-7.4535,0,0,0,0,0,0,-7.3093,-7.314,-7.3239,-7.3302,-7.3343,-7.3622,-7.3451,-7.345,-7.3519,-7.3502,-7.3574,-7.3577,-7.3559,-7.3769,-7.3804,-7.3937,-7.3693,-7.4303,-7.4322,-7.4338,-7.4517,-7.4554,-7.4585,0,0,0,0,0,-7.3078,-7.3286,-7.3244,-7.3283,-7.3467,-7.363,-7.3653,-7.3628,-7.353,-7.3629,-7.3649,-7.3575,-7.3902,-7.379,-7.3829,-7.3968,-7.4295,-7.4317,-7.4337,-7.4502,-7.4547,-7.4585,0,0,0,0,0,0,-7.3237,-7.3293,-7.3248,-7.3482,-7.3553,-7.3607,-7.3731,-7.3677,-7.3776,-7.3756,-7.3719,-7.3737,-7.3947,-7.3977,-7.3852,-7.4222,-7.4082,-7.4112,-7.4195,-7.4238,-7.4271,-7.426,-7.3705,0,0,0,0,0,-7.3299,-7.3427,-7.347,-7.3672,-7.371,-7.3715,-7.3785,-7.376,-7.3831,-7.3859,-7.3893,-7.3965,-7.4083,-7.4162,-7.4272,-7.452,-7.4534,-7.4635,-7.4669,-7.4697,-7.4724,-7.4857,-7.4903,-7.4416,-7.4416,-7.4416,0,0,-7.3429,-7.3476,-7.3559,-7.3705,-7.3757,-7.389,-7.3741,-7.3888,-7.3987,-7.3881,-7.4072,-7.41,-7.4176,-7.4401,-7.4502,-7.4433,-7.4861,-7.4724,-7.4746,-7.4757,-7.4884,-7.493,-7.4971,-7.4431,-7.4428,-7.4426,0,0,-7.3733,-7.3782,-7.3956,-7.4011,-7.4091,-7.4093,-7.4136,-7.4199,-7.4214,-7.4404,-7.4328,-7.4444,-7.4649,-7.4707,-7.4764,-7.5091,-7.5027,-7.5128,-7.5307,-7.5438,-7.5476,-7.551,-7.5628,-7.567,-7.5154,-7.5155,-7.5155,0,-7.3884,-7.4083,-7.4052,-7.4206,-7.4273,-7.4185,-7.4361,-7.4415,-7.4528,-7.4575,-7.4497,-7.4753,-7.4798,-7.5036,-7.5116,-7.5164,-7.5211,-7.512,-7.5474,-7.5507,-7.5538,-7.565,-7.5694,-7.5166,-7.5165,-7.5164,-7.5163,0,-7.4265,-7.4404,-7.4535,-7.4647,-7.4728,-7.4892,-7.4886,-7.4972,-7.494,-7.495,-7.5146,-7.5197,-7.5317,-7.5371,-7.5341,-7.5605,-7.556,-7.5479,-7.5338,-7.5597,-7.5701,-7.5744,-7.5183,-7.5179,-7.5175,-7.5173,0,0,-7.4674,-7.4767,-7.4816,-7.4866,-7.4948,-7.5054,-7.5214,-7.5332,-7.5407,-7.5487,-7.5621,-7.5796,-7.5722,-7.5786,-7.5761,-7.5876,-7.6133,-7.578,-7.5781,-7.5844,-7.6428,-7.649,-7.6539,-7.6091,-7.6099,-7.6105,-7.6422,0,-7.4982,-7.5262,-7.5239,-7.5503,-7.5631,-7.5549,-7.5689,-7.5754,-7.5768,-7.5878,-7.5893,-7.6019,-7.591,-7.5948,-7.6059,-7.6079,-7.625,-7.6055,-7.6214,-7.622,-7.6198,-7.6594,-7.6659,-7.6955,-7.6462,-7.6469,-7.6474,0,-7.5379,-7.5475,-7.5752,-7.5816,-7.5868,-7.5994,-7.6101,-7.6207,-7.628,-7.6282,-7.6355,-7.631,-7.6471,-7.6327,-7.6548,-7.6416,-7.648,-7.65,-7.651,-7.6525,-7.6363,-7.6619,-7.7049,-7.7094,-7.6538,-7.6533,-7.6528,0,-7.5651,-7.5848,-7.604,-7.6085,-7.6163,-7.6254,-7.6291,-7.6355,-7.6427,-7.652,-7.6567,-7.6678,-7.6738,-7.6825,-7.6811,-7.6707,-7.7037,-7.6891,-7.7043,-7.7044,-7.7116,-7.7112,-7.7563,-7.7157,-7.7156,-7.7156,-7.7155,0,-7.5998,-7.6171,-7.6163,-7.6281,-7.6472,-7.6444,-7.6634,-7.666,-7.6718,-7.6839,-7.6775,-7.6889,-7.6865,-7.6979,-7.697,-7.7155,-7.7182,-7.7188,-7.7184,-7.7195,-7.7194,-7.7236,-7.7216,-7.7167,-7.7165,-7.7162,-7.716,0,-7.6333,-7.6335,-7.6538,-7.6596,-7.6615,-7.6754,-7.6803,-7.6914,-7.6923,-7.7077,-7.7112,-7.7126,-7.7257,-7.7252,-7.7401,-7.7394,-7.7622,-7.7593,-7.7599,-7.7593,-7.7745,-7.7731,-7.824,-7.8305,-7.7856,-7.786,-7.7864,0,-7.6555,-7.6686,-7.6759,-7.6836,-7.6879,-7.7004,-7.7078,-7.7055,-7.7135,-7.7228,-7.7328,-7.7454,-7.7553,-7.7767,-7.779,-7.7903,-7.7877,-7.8048,-7.7894,-7.7901,-7.7881,-7.7874,-7.7887,-7.8078,-7.8083,-7.8087,-7.809,0,-7.6949,-7.6943,-7.7053,-7.7164,-7.7255,-7.7341,-7.742,-7.7486,-7.7472,-7.7565,-7.7699,-7.7777,-7.7929,-7.8055,-7.8164,-7.82,-7.8145,-7.8139,-7.818,-7.8193,-7.8191,-7.8195,-7.7681,-7.8127,-7.8123,-7.8121,-7.8119,-7.8117,-7.7235,-7.7348,-7.7417,-7.7541,-7.7599,-7.7674,-7.7782,-7.7804,-7.7916,-7.8039,-7.8019,-7.8169,-7.8238,-7.8379,-7.8426,-7.8543,-7.8483,-7.8542,-7.8557,-7.8573,-7.859,-7.8172,-7.8563,-7.8562,-7.8561,-7.856,-7.8559,0,-7.7625,-7.7666,-7.7781,-7.7894,-7.7992,-7.7931,-7.8015,-7.8101,-7.8235,-7.8304,-7.8404,-7.8558,-7.868,-7.8713,-7.883,-7.8918,-7.8895,-7.8949,-7.8943,-7.8952,-7.8637,-7.859,-7.8966,-7.8966,-7.8966,-7.8966,-7.8965,-7.8965,-7.7841,-7.8029,-7.8032,-7.8248,-7.8287,-7.8435,-7.8488,-7.8557,-7.8613,-7.8789,-7.889,-7.8911,-7.8966,-7.9086,-7.9195,-7.9202,-7.9248,-7.9314,-7.931,-7.9015,-7.8974,-7.8936,-7.8891,-7.9324,-7.9324,-7.9615,-7.9618,-7.962]}]]